Location: Brantford
(43.1330°N, 80.2670°W)
Time: 19:58:11
(UTC-05:00)

Tiros 1 - Visible Passes

Search period start: 21 November 2019 00:00
Search period end: 01 December 2019 00:00
Orbit: 630 x 664 km, 48.4° (Epoch: 21 November)

Date Brightness Start Highest point End Pass type
(mag) Time Alt. Az. Time Alt. Az. Time Alt. Az.
21 Nov 7.3 17:44:58 10° WNW 17:49:31 56° NNE 17:53:28 14° E visible
21 Nov 8.0 19:27:14 10° WNW 19:31:10 47° WSW 19:31:10 47° WSW visible
22 Nov 7.0 18:11:03 10° WNW 18:15:43 85° NNE 18:18:52 21° ESE visible
22 Nov 9.2 19:53:45 10° W 19:56:34 23° WSW 19:56:34 23° WSW visible
23 Nov 7.7 18:37:12 10° WNW 18:41:44 54° SSW 18:44:27 23° SE visible
23 Nov 10.1 20:21:43 10° WSW 20:22:10 11° WSW 20:22:10 11° WSW visible
24 Nov 7.1 17:21:01 10° WNW 17:25:41 81° NNE 17:30:21 10° ESE visible
24 Nov 9.0 19:03:39 10° W 19:07:33 27° SW 19:10:19 16° S visible
25 Nov 7.7 17:47:09 10° WNW 17:51:43 58° SSW 17:56:17 10° SE visible
25 Nov 10.0 19:31:16 10° WSW 19:33:11 12° SW 19:35:05 10° SSW visible
26 Nov 9.0 18:13:34 10° W 18:17:33 29° SW 18:21:33 10° SSE visible
27 Nov 10.0 18:40:56 10° WSW 18:43:12 13° SW 18:45:28 10° SSW visible
28 Nov 9.1 17:23:29 10° WNW 17:27:33 31° SW 17:31:38 10° SSE visible
29 Nov 10.1 17:50:40 10° W 17:53:13 15° SW 17:55:47 10° SSW visible
